Weather History for Rugby, ND

Change the Weather History Date:

Tuesday, November 26, 2013

  Actual Average Record
Temperature  
Mean Temperature 9 °F -  
Max Temperature 15 °F 27 °F 59 °F (1962)
Min Temperature 3 °F 11 °F -17 °F (1985)
Degree Days  
Heating Degree Days 56    
Moisture  
Dew Point 5 °F    
Average Humidity 83    
Maximum Humidity 92    
Minimum Humidity 68    
Precipitation  
Precipitation 0.00 in - - ()
Sea Level Pressure  
Sea Level Pressure 30.38 in    
Wind  
Wind Speed 10 mph (WNW)    
Max Wind Speed 16 mph    
Max Gust Speed -    
Visibility 10 miles    
Events      
Averages and records for this station are not official NWS values.
T = Trace of Precipitation, MM = Missing Value Source: NWS Daily Summary

Daily Weather History Graph

Daily Weather History Graph

Search for Another Location

Airport:

Trip Planner

Search our weather history database for the weather conditions in past years. The results will help you decide how hot, cold, wet, or windy it might be!

Date:

Astronomy

Nov. 26, 2013 Rise Set
Actual Time 8:04 AM CST 4:50 PM CST
Civil Twilight 7:28 AM CST 5:25 PM CST
Nautical Twilight 6:49 AM CST 6:04 PM CST
Astronomical Twilight 6:12 AM CST 6:42 PM CST
Moon 12:38 AM CST (11/26) 1:26 PM CST (11/26)
Length of Visible Light 9h 57m
Length of Day
8h 46m
Last Quarter, 41% of the Moon is Illuminated
Nov 26
Last Quarter
Dec 2
New
Dec 9
First Quarter
Dec 17
Full
Dec 25
Last Quarter

Hourly Weather History & Observations

Time (CST) Temp. Windchill Dew Point Humidity Pressure Visibility Wind Dir Wind Speed Gust Speed Precip Events Conditions
12:15 AM 12.2 °F -4.3 °F 6.8 °F 79% 30.27 in 10.0 mi NW 16.1 mph - N/A   Clear
12:35 AM 10.4 °F -6.6 °F 6.8 °F 85% 30.27 in 10.0 mi WNW 16.1 mph - N/A   Clear
12:55 AM 10.4 °F -3.3 °F 5.0 °F 79% 30.28 in 10.0 mi WNW 10.4 mph - N/A   Clear
1:15 AM 8.6 °F -5.5 °F 5.0 °F 85% 30.29 in 10.0 mi WNW 10.4 mph - N/A   Clear
1:35 AM 8.6 °F -5.5 °F 5.0 °F 85% 30.29 in 10.0 mi WNW 10.4 mph - N/A   Clear
1:55 AM 6.8 °F -7.8 °F 3.2 °F 85% 30.30 in 10.0 mi WNW 10.4 mph - N/A   Clear
2:15 AM 6.8 °F -5.9 °F 5.0 °F 92% 30.30 in 10.0 mi WNW 8.1 mph - N/A   Clear
2:35 AM 6.8 °F -8.6 °F 5.0 °F 92% 30.31 in 10.0 mi NW 11.5 mph - N/A   Clear
2:55 AM 8.6 °F -6.3 °F 5.0 °F 85% 30.31 in 10.0 mi WNW 11.5 mph - N/A   Clear
3:15 AM 6.8 °F -5.9 °F 3.2 °F 85% 30.32 in 10.0 mi WNW 8.1 mph - N/A   Clear
3:35 AM 8.6 °F -4.7 °F 5.0 °F 85% 30.33 in 10.0 mi NW 9.2 mph - N/A   Scattered Clouds
3:55 AM 8.6 °F -7.0 °F 5.0 °F 85% 30.33 in 10.0 mi NW 12.7 mph - N/A   Scattered Clouds
4:15 AM 8.6 °F -6.3 °F 5.0 °F 85% 30.33 in 10.0 mi WNW 11.5 mph - N/A   Clear
4:35 AM 6.8 °F -7.8 °F 5.0 °F 92% 30.34 in 10.0 mi WNW 10.4 mph - N/A   Clear
4:55 AM 6.8 °F -8.6 °F 5.0 °F 92% 30.35 in 10.0 mi NW 11.5 mph - N/A   Clear
5:15 AM 6.8 °F -8.6 °F 3.2 °F 85% 30.35 in 10.0 mi NW 11.5 mph - N/A   Clear
5:35 AM 6.8 °F -9.3 °F 3.2 °F 85% 30.36 in 10.0 mi NW 12.7 mph - N/A   Clear
5:55 AM 6.8 °F -6.9 °F 3.2 °F 85% 30.36 in 10.0 mi WNW 9.2 mph - N/A   Clear
6:15 AM 6.8 °F -7.8 °F 3.2 °F 85% 30.37 in 10.0 mi NW 10.4 mph - N/A   Clear
6:35 AM 5.0 °F -9.1 °F 1.4 °F 85% 30.38 in 10.0 mi WNW 9.2 mph - N/A   Clear
6:55 AM 5.0 °F -10.0 °F 1.4 °F 85% 30.39 in 10.0 mi NW 10.4 mph - N/A   Clear
7:15 AM 5.0 °F -10.0 °F 1.4 °F 85% 30.40 in 10.0 mi WNW 10.4 mph - N/A   Clear
7:35 AM 5.0 °F -10.8 °F 1.4 °F 85% 30.40 in 10.0 mi WNW 11.5 mph - N/A   Clear
7:55 AM 5.0 °F -10.0 °F 1.4 °F 85% 30.41 in 10.0 mi NW 10.4 mph - N/A   Clear
8:15 AM 5.0 °F -5.6 °F 1.4 °F 85% 30.41 in 10.0 mi NW 5.8 mph - N/A   Clear
8:35 AM 3.2 °F -4.2 °F -0.4 °F 85% 30.42 in 10.0 mi NW 3.5 mph - N/A   Clear
8:55 AM 5.0 °F -8.1 °F 1.4 °F 85% 30.42 in 10.0 mi NW 8.1 mph - N/A   Clear
9:15 AM 5.0 °F -8.1 °F 1.4 °F 85% 30.43 in 10.0 mi NW 8.1 mph - N/A   Clear
9:35 AM 6.8 °F -5.9 °F 5.0 °F 92% 30.44 in 10.0 mi NW 8.1 mph - N/A   Clear
9:55 AM 8.6 °F -4.7 °F 5.0 °F 85% 30.44 in 10.0 mi NW 9.2 mph - N/A   Clear
10:15 AM 10.4 °F -3.3 °F 6.8 °F 85% 30.44 in 10.0 mi NW 10.4 mph - N/A   Clear
10:35 AM 10.4 °F -4.8 °F 6.8 °F 85% 30.45 in 10.0 mi NW 12.7 mph - N/A   Clear
10:55 AM 12.2 °F -0.2 °F 8.6 °F 85% 30.46 in 10.0 mi WNW 9.2 mph - N/A   Clear
11:15 AM 12.2 °F -1.8 °F 8.6 °F 85% 30.45 in 10.0 mi WNW 11.5 mph - N/A   Clear
11:35 AM 14.0 °F 0.5 °F 8.6 °F 79% 30.46 in 10.0 mi NW 11.5 mph - N/A   Clear
11:55 AM 14.0 °F 2.0 °F 8.6 °F 79% 30.45 in 10.0 mi WNW 9.2 mph - N/A   Clear
12:15 PM 14.0 °F 0.5 °F 8.6 °F 79% 30.45 in 10.0 mi NW 11.5 mph - N/A   Clear
12:35 PM 15.8 °F 5.1 °F 8.6 °F 73% 30.45 in 10.0 mi NW 8.1 mph - N/A   Clear
12:55 PM 15.8 °F 3.4 °F 8.6 °F 73% 30.44 in 10.0 mi NW 10.4 mph - N/A   Clear
1:15 PM 15.8 °F 4.2 °F 8.6 °F 73% 30.45 in 10.0 mi WNW 9.2 mph - N/A   Clear
1:35 PM 15.8 °F 3.4 °F 8.6 °F 73% 30.44 in 10.0 mi NW 10.4 mph - N/A   Clear
1:55 PM 15.8 °F 5.1 °F 8.6 °F 73% 30.43 in 10.0 mi NW 8.1 mph - N/A   Clear
2:15 PM 15.8 °F 6.1 °F 8.6 °F 73% 30.42 in 10.0 mi NW 6.9 mph - N/A   Clear
2:35 PM 15.8 °F 6.1 °F 6.8 °F 68% 30.42 in 10.0 mi NW 6.9 mph - N/A   Clear
2:55 PM 15.8 °F 6.1 °F 6.8 °F 68% 30.42 in 10.0 mi NW 6.9 mph - N/A   Clear
3:15 PM 15.8 °F 6.1 °F 6.8 °F 68% 30.42 in 10.0 mi WNW 6.9 mph - N/A   Clear
3:35 PM 15.8 °F 8.6 °F 6.8 °F 68% 30.42 in 10.0 mi NW 4.6 mph - N/A   Clear
3:55 PM 15.8 °F 10.2 °F 6.8 °F 68% 30.42 in 10.0 mi NW 3.5 mph - N/A   Clear
4:15 PM 14.0 °F 8.2 °F 6.8 °F 73% 30.41 in 10.0 mi NW 3.5 mph - N/A   Clear
4:35 PM 14.0 °F - 6.8 °F 73% 30.41 in 10.0 mi Calm Calm - N/A   Clear
4:55 PM 14.0 °F 8.2 °F 6.8 °F 73% 30.41 in 9.0 mi WNW 3.5 mph - N/A   Clear
5:15 PM 10.4 °F 0.8 °F 5.0 °F 79% 30.41 in 7.0 mi WSW 5.8 mph - N/A   Clear
5:35 PM 10.4 °F 4.0 °F 5.0 °F 79% 30.41 in 6.0 mi WSW 3.5 mph - N/A   Haze
5:55 PM 10.4 °F - 5.0 °F 79% 30.41 in 8.0 mi Calm Calm - N/A   Clear
6:15 PM 8.6 °F - 5.0 °F 85% 30.41 in 10.0 mi Calm Calm - N/A   Clear
6:35 PM 6.8 °F - 3.2 °F 85% 30.40 in 10.0 mi Calm Calm - N/A   Clear
6:55 PM 6.8 °F - 5.0 °F 92% 30.39 in 10.0 mi Calm Calm - N/A   Clear
7:15 PM 6.8 °F -0.1 °F 3.2 °F 85% 30.37 in 10.0 mi SE 3.5 mph - N/A   Clear
7:35 PM 5.0 °F -4.1 °F 1.4 °F 85% 30.37 in 10.0 mi SE 4.6 mph - N/A   Clear
7:55 PM 5.0 °F -2.1 °F 1.4 °F 85% 30.37 in 10.0 mi South 3.5 mph - N/A   Clear
8:15 PM 5.0 °F -5.6 °F 3.2 °F 92% 30.37 in 10.0 mi South 5.8 mph - N/A   Clear
8:35 PM 3.2 °F -6.2 °F 1.4 °F 92% 30.36 in 10.0 mi SE 4.6 mph - N/A   Clear
8:55 PM 5.0 °F -4.1 °F 1.4 °F 85% 30.36 in 10.0 mi SE 4.6 mph - N/A   Clear
9:15 PM 5.0 °F -5.6 °F 1.4 °F 85% 30.35 in 10.0 mi SSE 5.8 mph - N/A   Clear
9:35 PM 5.0 °F -5.6 °F 1.4 °F 85% 30.34 in 10.0 mi SSE 5.8 mph - N/A   Clear
9:55 PM 5.0 °F -5.6 °F 3.2 °F 92% 30.33 in 10.0 mi South 5.8 mph - N/A   Clear
10:15 PM 5.0 °F -5.6 °F 3.2 °F 92% 30.32 in 10.0 mi SE 5.8 mph - N/A   Clear
10:35 PM 6.8 °F -0.1 °F 3.2 °F 85% 30.32 in 10.0 mi SSE 3.5 mph - N/A   Clear
10:55 PM 6.8 °F -3.5 °F 5.0 °F 92% 30.31 in 10.0 mi SSE 5.8 mph - N/A   Clear
11:15 PM 6.8 °F -4.8 °F 5.0 °F 92% 30.30 in 10.0 mi SSE 6.9 mph - N/A   Clear
11:35 PM 6.8 °F -4.8 °F 5.0 °F 92% 30.30 in 10.0 mi South 6.9 mph - N/A   Clear
11:55 PM 8.6 °F -2.6 °F 5.0 °F 85% 30.29 in 10.0 mi SSE 6.9 mph - N/A   Clear